Tracking 31027 objects as of 19-Jul-2025
HD Live streaming from Space Station
objects crossing your sky now

BLACKJACK ACES-2

Track BLACKJACK ACES-2 now!
10-day predictions


NORAD ID: 56955
Int'l Code: 2023-084Z
Perigee: 503.6 km
Apogee: 516.3 km
Inclination: 97.6 °
Period: 94.7 minutes
Semi major axis: 6880 km
RCS: Unknown
Launch date: June 12, 2023
Source: United States (US)
Launch site: AIR FORCE WESTERN TEST RANGE (AFWTR)
Your satellite tracking list
MOLNIYA 1-86
Track 1 satellite(s)




NASA's NSSDC Master Catalog

Two Line Element Set (TLE):
1 56955U 23084Z   25199.61958132  .00007620  00000-0  34645-3 0  9998
2 56955  97.5796 327.3395 0009255  71.9451 288.2792 15.20995915116490
Source of the keplerian elements: AFSPC